267P/LONEOS (2018)

Japanese version
Home page
Updated on March 5, 2020

---------------------------------------------------------------------

* Profile

* Orbital Elements

Epoch 2018 July 21.0 TT = JDT 2458320.5
T 2018 July 22.31458 TT                                 MPCW
q   1.2411175            (2000.0)            P               Q
n   0.17120944     Peri.  114.07942     +0.95118684     +0.29798177
a   3.2120644      Node   228.68958     -0.30744160     +0.89224023
e   0.6136075      Incl.    6.13799     -0.02689355     +0.33928490
P   5.76
From 192 observations 2006 Aug. 29-2018 Nov. 17, mean residual 0".5.
     Nongravitational parameters A1 = -0.06, A2 = -0.0033.

* Magnitudes Graph

        m1 = 19.5 + 5 log d + 10.0 log r

---------------------------------------------------------------------

The orbital elements are published on M.P.E.C. 2019-J142.
The magnitudes graphs are made with Comet for Windows.

---------------------------------------------------------------------

Copyright(C) Seiichi Yoshida (comet@aerith.net). All rights reserved.